Location: Nairn
(57.5833°N, 3.8667°W)
Time: 02:31:42
(UTC+00:00)

Vanguard 1 Rocket - Pass Details

Date: 27 November 2020
Orbit: 655 x 4221 km, 34.3° (Epoch: 20 January)

Event Time Altitude Azimuth Distance (km) Brightness Sun altitude
Exits shadow 00:54:34 19° 128° (SE) 5,840 11.3 -52.4°
Drops below altitude 10° 01:01:20 10° 108° (ESE) 6,021 11.5 -52.1°
Sets 01:06:49 0° 94° (E) 6,489 11.9 -51.8°
